This is the latest recevied weather packets stored in our database for station/object DL1GHN-6. If no packets are shown the sender has not sent any weather packets the latest 1 day(s).
| Time | Temp. | Humidity | Pressure | Rain* | Wind** | Luminosity | Snow |
|---|---|---|---|---|---|---|---|
| 1777983918 | 17.22° C | 80% | 1008.1 hPa | 0 mm | 0.45 m/s, 279° | 232 W/m² | - |
| 1777983617 | 16.67° C | 81% | 1008.1 hPa | 0 mm | 0 m/s | 230 W/m² | - |
| 1777983318 | 17.22° C | 80% | 1008.2 hPa | 0 mm | 0.45 m/s, 56° | 223 W/m² | - |
| 1777983018 | 17.22° C | 81% | 1008.3 hPa | 0 mm | 0.45 m/s, 9° | 244 W/m² | - |
| 1777982718 | 17.22° C | 82% | 1008.4 hPa | 0 mm | 0.89 m/s, 285° | 243 W/m² | - |
| 1777982418 | 17.22° C | 82% | 1008.4 hPa | 0 mm | 1.34 m/s, 29° | 267 W/m² | - |
| 1777982118 | 16.67° C | 82% | 1008.4 hPa | 0 mm | 0 m/s | 279 W/m² | - |
| 1777981817 | 16.67° C | 82% | 1008.4 hPa | 0 mm | 0.89 m/s, 281° | 260 W/m² | - |
| 1777981518 | 16.67° C | 83% | 1008.4 hPa | 0 mm | 0.45 m/s, 327° | 223 W/m² | - |
| 1777981217 | 16.67° C | 83% | 1008.5 hPa | 0 mm | 0.45 m/s, 273° | 190 W/m² | - |
| 1777980919 | 16.67° C | 82% | 1008.5 hPa | 0 mm | 0.45 m/s, 51° | 181 W/m² | - |
| 1777980617 | 16.67° C | 82% | 1008.6 hPa | 0 mm | 0.45 m/s, 303° | 174 W/m² | - |
| 1777980318 | 16.67° C | 82% | 1008.6 hPa | 0 mm | 0.45 m/s, 327° | 183 W/m² | - |
| 1777980017 | 16.67° C | 83% | 1008.6 hPa | 0 mm | 0 m/s | 172 W/m² | - |
| 1777979717 | 16.67° C | 83% | 1008.6 hPa | 0 mm | 0 m/s | 163 W/m² | - |
| 1777979418 | 16.67° C | 83% | 1008.7 hPa | 0 mm | 0.45 m/s, 317° | 165 W/m² | - |
| 1777979117 | 16.67° C | 82% | 1008.6 hPa | 0 mm | 0.45 m/s, 300° | 178 W/m² | - |
| 1777978818 | 16.67° C | 82% | 1008.6 hPa | 0 mm | 0.45 m/s, 263° | 171 W/m² | - |
| 1777978518 | 16.67° C | 81% | 1008.7 hPa | 0 mm | 0.45 m/s, 313° | 158 W/m² | - |
| 1777978218 | 16.67° C | 80% | 1008.8 hPa | 0 mm | 0 m/s | 148 W/m² | - |
| 1777977918 | 16.67° C | 81% | 1008.8 hPa | 0 mm | 0.45 m/s, 310° | 137 W/m² | - |
| 1777977618 | 16.67° C | 79% | 1008.9 hPa | 0 mm | 0.89 m/s, 312° | 121 W/m² | - |
| 1777977317 | 16.67° C | 78% | 1008.9 hPa | 0 mm | 0.45 m/s, 247° | 121 W/m² | - |
| 1777977017 | 16.67° C | 76% | 1008.9 hPa | 0 mm | 0 m/s | 128 W/m² | - |
| 1777976718 | 17.22° C | 78% | 1008.8 hPa | 0 mm | 0.45 m/s, 340° | 149 W/m² | - |
* Rain latest hour (hover to see other rain measurements)
** Current wind speed in m/s (hover to see current wind gust speed)